[[{"header":{"parameterUnit":"m.s-1","parameterCategory":1,"la1":30.2991,"la2":30.254,"lo1":-89.0895,"lo2":-89.0444,"dy":0.0017,"dx":0.0017,"nx":28,"ny":28,"refTime":"2024-08-03T09:00:00:Z","depth":0,"parameterNumber":2,"parameterNumberName":"U-component_of_WINDS"},"data":[0,0,0,0,0,0,0,0,0,0,0,0,0,0,0,0,0,0,0,0,0,0,0,0,0,0,0,0,0,0,0,0,0,0,0,0,0,0,0,0,0,0,0,0,0,0,0,0,0,0,0,0,0,0,0,0,0,0,0.2761,0.276,0,0.2662,0.266,0.2659,0.2584,0.2583,0.2583,0.2582,0.2482,0.248,0.2478,0,0,0,0,0,0,0,0,0,0,0,0,0,0.2888,0.2886,0.2761,0.276,0.2759,0.2662,0.266,0.2659,0.2584,0.2583,0.2582,0.2582,0.2482,0.248,0.2478,0,0,0,0,0,0,0,0,0,0,0,0,0,0.2816,0.2886,0.2762,0.271,0.2704,0.2662,0.266,0.2659,0.2584,0.2583,0.2582,0.2581,0.2483,0.248,0.2477,0.2479,0,0,0.2468,0.2467,0,0,0,0,0,0,0,0,0.282,0.2811,0.2719,0.2713,0.2707,0.2634,0.2668,0.2599,0.2585,0.263,0.2582,0.2581,0.2533,0.2526,0.251,0.2475,0.247,0.2468,0.2466,0.2465,0.2464,0,0,0,0,0,0,0,0.2825,0.2815,0.2722,0.2717,0.271,0.2692,0.268,0.2655,0.2589,0.2626,0.262,0.2609,0.253,0.2513,0.2507,0.2469,0.2468,0.2465,0.2463,0.2462,0.2431,0.2432,0,0,0,0,0,0,0.2838,0.282,0.2725,0.2719,0.2762,0.2691,0.2678,0.2659,0.2589,0.2577,0.261,0.2606,0.2519,0.2511,0.2503,0.2501,0.2465,0.2462,0.246,0.243,0.2431,0.2432,0,0,0,0,0,0,0.2841,0.283,0.2729,0.2768,0.2753,0.2689,0.2669,0.2657,0.264,0.2577,0.2565,0.2605,0.2518,0.2507,0.2486,0.2497,0.246,0.2458,0.2429,0.243,0.2431,0.2497,0,0,0,0,0,0,0.2845,0.2832,0.2831,0.2768,0.2752,0.2713,0.2669,0.2656,0.2635,0.2628,0.2569,0.2558,0.2516,0.2491,0.2483,0.2492,0.2455,0.2427,0.2429,0.2431,0.2494,0.2501,0.2507,0,0,0,0,0,0.285,0.2854,0.2832,0.2821,0.275,0.2714,0.2704,0.2655,0.2636,0.2635,0.2595,0.256,0.2497,0.2489,0.248,0.2488,0.2426,0.2429,0.2431,0.2491,0.25,0.2507,0,0,0,0,0,0,0.2921,0.2845,0.2819,0.2803,0.2766,0.2701,0.2699,0.2666,0.2633,0.2629,0.257,0.2557,0.2542,0.2513,0.2506,0.2486,0.2457,0.2458,0.2506,0.2514,0.252,0.2528,0.2453,0,0,0,0,0,0.2935,0.2911,0.2846,0.2839,0.2821,0.2764,0.2746,0.2712,0.267,0.2654,0.2612,0.2574,0.2545,0.2528,0.2498,0.2489,0.2475,0.249,0.2497,0.2502,0.2504,0.2497,0.2503,0.2439,0.2439,0.2439,0,0,0.2963,0.2919,0.2908,0.2852,0.2819,0.2796,0.2751,0.2729,0.2712,0.2651,0.2628,0.2596,0.2549,0.2534,0.2525,0.2509,0.2518,0.2505,0.251,0.2508,0.25,0.2506,0.2512,0.2441,0.244,0.244,0,0,0.3004,0.2968,0.2957,0.2925,0.2875,0.2836,0.2834,0.2775,0.2751,0.2727,0.268,0.266,0.2612,0.258,0.2558,0.2587,0.2554,0.2579,0.2613,0.2608,0.2613,0.2617,0.2628,0.2632,0.2581,0.2581,0.2581,0,0.3046,0.301,0.2957,0.2938,0.2915,0.2858,0.2848,0.2819,0.2762,0.2748,0.273,0.2668,0.2633,0.261,0.2617,0.2601,0.2597,0.2586,0.2616,0.262,0.2623,0.2633,0.2637,0.2584,0.2584,0.2583,0.2583,0,0.3064,0.304,0.3038,0.2984,0.2961,0.2946,0.2891,0.2874,0.2842,0.2806,0.2782,0.2738,0.2698,0.269,0.2658,0.2662,0.2654,0.2627,0.2597,0.2633,0.2642,0.2645,0.2589,0.2588,0.2587,0.2586,0,0,0.3147,0.3064,0.3064,0.3039,0.298,0.296,0.2943,0.2904,0.2891,0.2854,0.2838,0.2799,0.2774,0.2749,0.2713,0.2708,0.2734,0.2681,0.2679,0.2693,0.2737,0.2758,0.2763,0.2712,0.2712,0.2712,0.2741,0,0.3179,0.3145,0.3097,0.3079,0.3057,0.3002,0.2988,0.295,0.2916,0.2892,0.2854,0.2827,0.2796,0.278,0.2773,0.2733,0.2742,0.273,0.2697,0.2697,0.2711,0.2767,0.2789,0.2818,0.2744,0.2744,0.2744,0,0.3211,0.3177,0.3157,0.31,0.3088,0.3076,0.3036,0.3014,0.297,0.2946,0.2918,0.2879,0.2859,0.2831,0.2803,0.2795,0.2779,0.2758,0.2757,0.2753,0.2724,0.2765,0.2826,0.2831,0.2749,0.2748,0.2748,0,0.3275,0.3223,0.3205,0.3185,0.3117,0.311,0.3082,0.3037,0.3016,0.2982,0.2968,0.2932,0.2912,0.2885,0.2838,0.2822,0.2815,0.2783,0.2794,0.2796,0.2796,0.2797,0.2856,0.2785,0.2785,0.2785,0.2785,0,0.3316,0.3306,0.3232,0.3221,0.3209,0.3153,0.3143,0.3109,0.307,0.3052,0.3002,0.2986,0.2924,0.2901,0.2864,0.2847,0.2838,0.2818,0.2808,0.2823,0.2825,0.2812,0.2809,0.2786,0.2785,0.2785,0.2785,0,0.3385,0.3335,0.3311,0.3249,0.3233,0.3227,0.3174,0.3161,0.3124,0.3101,0.3093,0.3035,0.3005,0.2955,0.291,0.2885,0.2875,0.2858,0.289,0.2884,0.2899,0.2898,0.2952,0.2956,0.2882,0.2883,0.2884,0,0.3414,0.3405,0.3342,0.3326,0.33,0.3275,0.3253,0.3199,0.3179,0.3128,0.3122,0.3088,0.3058,0.3013,0.2967,0.2933,0.2915,0.2937,0.291,0.2925,0.2916,0.2918,0.2917,0.2943,0.2944,0.2945,0.2946,0,0.3472,0.3448,0.3419,0.3382,0.3358,0.3326,0.3292,0.3282,0.322,0.32,0.3168,0.3145,0.31,0.3067,0.3026,0.2997,0.2962,0.2954,0.2955,0.297,0.2989,0.298,0.2907,0.2954,0.2953,0.2952,0.2952,0.2951,0.3523,0.3513,0.3467,0.3436,0.3405,0.3374,0.3359,0.332,0.3292,0.3251,0.322,0.3191,0.3148,0.3089,0.3063,0.3039,0.3023,0.3024,0.3025,0.3026,0.3032,0.2992,0.3032,0.3031,0.3031,0.3031,0.303,0,0.3579,0.3547,0.3519,0.3473,0.3449,0.3417,0.3377,0.336,0.3335,0.3297,0.3268,0.3233,0.32,0.3152,0.3116,0.3107,0.309,0.3099,0.31,0.3094,0.3048,0.3051,0.3114,0.3114,0.3114,0.3114,0.3114,0.3114,0.3605,0.3587,0.3557,0.3522,0.349,0.3461,0.3441,0.3413,0.3382,0.3344,0.3317,0.3286,0.3244,0.3204,0.3174,0.316,0.3149,0.3165,0.3146,0.3105,0.3097,0.309,0.3092,0.3163,0.3163,0.3194,0.3194,0.3194]},{"header":{"parameterUnit":"m.s-1","parameterCategory":1,"la1":30.2991,"la2":30.254,"lo1":-89.0895,"lo2":-89.0444,"dy":0.0017,"dx":0.0017,"nx":28,"ny":28,"refTime":"2024-08-03T09:00:00:Z","depth":0,"parameterNumber":3,"parameterNumberName":"V-component_of_WINDS"},"data":[0,0,0,0,0,0,0,0,0,0,0,0,0,0,0,0,0,0,0,0,0,0,0,0,0,0,0,0,0,0,0,0,0,0,0,0,0,0,0,0,0,0,0,0,0,0,0,0,0,0,0,0,0,0,0,0,0,0,2.1106,2.1105,0,2.1025,2.1024,2.1023,2.0935,2.0934,2.0932,2.0931,2.0846,2.0845,2.0844,0,0,0,0,0,0,0,0,0,0,0,0,0,2.1181,2.118,2.1106,2.1105,2.1104,2.1025,2.1024,2.1023,2.0935,2.0934,2.0932,2.0931,2.0846,2.0845,2.0844,0,0,0,0,0,0,0,0,0,0,0,0,0,2.1129,2.118,2.1106,2.1051,2.1045,2.1025,2.1024,2.1022,2.0935,2.0934,2.0932,2.093,2.0847,2.0845,2.0843,2.0871,0,0,2.0838,2.0838,0,0,0,0,0,0,0,0,2.1132,2.1126,2.106,2.1055,2.1048,2.0988,2.1019,2.0971,2.0936,2.0977,2.0931,2.0929,2.0895,2.0889,2.0878,2.0867,2.0863,2.0838,2.0837,2.0836,2.0836,0,0,0,0,0,0,0,2.1136,2.1129,2.1074,2.1059,2.1052,2.1028,2.1019,2.1009,2.0947,2.0973,2.0967,2.0958,2.0891,2.0879,2.0875,2.0862,2.0838,2.0837,2.0836,2.0835,2.0862,2.0864,0,0,0,0,0,0,2.1148,2.1133,2.1076,2.1071,2.1086,2.1029,2.1018,2.1009,2.0947,2.0936,2.096,2.0955,2.0883,2.0877,2.0872,2.0894,2.0836,2.0835,2.0834,2.0861,2.0863,2.0865,0,0,0,0,0,0,2.115,2.1144,2.108,2.11,2.109,2.1029,2.102,2.1009,2.0997,2.0937,2.0925,2.096,2.0881,2.0874,2.087,2.089,2.0834,2.0833,2.0859,2.0861,2.0864,2.0944,0,0,0,0,0,0,2.1153,2.1145,2.1156,2.1101,2.109,2.1081,2.1022,2.1008,2.0995,2.0987,2.0934,2.0923,2.0879,2.0873,2.0869,2.0887,2.0831,2.0857,2.086,2.0863,2.0939,2.0949,2.0957,0,0,0,0,0,2.1156,2.1183,2.1157,2.1151,2.1102,2.1083,2.1076,2.1025,2.0997,2.1006,2.0967,2.0925,2.089,2.0874,2.0868,2.0886,2.0855,2.0859,2.0863,2.0935,2.0947,2.0957,0,0,0,0,0,0,2.1242,2.1175,2.1146,2.1156,2.1126,2.1068,2.1078,2.1041,2.1017,2.1011,2.0949,2.0937,2.094,2.0913,2.0896,2.0906,2.0866,2.0869,2.0923,2.0934,2.0943,2.0947,2.083,0,0,0,0,0,2.1262,2.1253,2.1195,2.1209,2.1196,2.114,2.113,2.1093,2.1059,2.1046,2.1006,2.0974,2.0954,2.0943,2.0923,2.0936,2.092,2.0945,2.0954,2.0962,2.0964,2.0963,2.0972,2.0877,2.0877,2.0877,0,0,2.1304,2.1266,2.1264,2.1226,2.1198,2.1187,2.113,2.1123,2.1113,2.1044,2.1037,2.1007,2.0966,2.0969,2.0969,2.0947,2.0987,2.0967,2.0974,2.0971,2.0968,2.0977,2.0985,2.088,2.088,2.0879,0,0,2.1373,2.1346,2.1352,2.1325,2.1284,2.1246,2.1248,2.1195,2.1172,2.1165,2.1111,2.1099,2.1069,2.104,2.1022,2.1077,2.1036,2.1073,2.1119,2.1118,2.1126,2.1132,2.1147,2.1153,2.1076,2.1076,2.1076,0,2.1429,2.1412,2.136,2.1355,2.1337,2.1275,2.1279,2.1256,2.121,2.1198,2.1175,2.1132,2.1101,2.1094,2.1107,2.1096,2.1093,2.1077,2.1129,2.1135,2.114,2.1153,2.1159,2.108,2.108,2.1079,2.1079,0,2.1481,2.147,2.1481,2.1436,2.1421,2.1421,2.1366,2.1356,2.1321,2.1285,2.1275,2.1235,2.1203,2.12,2.1166,2.1186,2.1173,2.1141,2.1099,2.1154,2.1165,2.117,2.1086,2.1085,2.1084,2.1082,0,0,2.16,2.1527,2.1531,2.1508,2.1457,2.1447,2.1442,2.1411,2.1401,2.1372,2.1363,2.1338,2.1306,2.1286,2.1248,2.1249,2.1288,2.1215,2.1213,2.1226,2.1302,2.1324,2.1331,2.1262,2.1263,2.1264,2.1304,0,2.1656,2.1645,2.1597,2.1599,2.1585,2.1525,2.1521,2.1487,2.1454,2.1436,2.1398,2.1379,2.1341,2.1327,2.1325,2.1284,2.1302,2.1281,2.125,2.1249,2.1258,2.1337,2.1361,2.1401,2.1308,2.1309,2.131,0,2.172,2.1693,2.1694,2.1639,2.1632,2.1629,2.1594,2.158,2.1539,2.1514,2.149,2.1447,2.1435,2.1399,2.138,2.1366,2.1351,2.1328,2.1328,2.132,2.128,2.1327,2.1413,2.1418,2.1317,2.1316,2.1316,0,2.18,2.1765,2.1759,2.1743,2.1681,2.1679,2.1653,2.1611,2.1594,2.1564,2.1551,2.152,2.1502,2.1478,2.1426,2.1405,2.1411,2.1371,2.1386,2.1387,2.1387,2.1387,2.1467,2.1385,2.1385,2.1385,2.1384,0,2.1865,2.1866,2.1794,2.179,2.1788,2.1733,2.1732,2.17,2.1663,2.165,2.1597,2.1585,2.152,2.15,2.146,2.1447,2.1441,2.1417,2.1405,2.1419,2.1422,2.1406,2.14,2.1386,2.1386,2.1385,2.1385,0,2.1952,2.1905,2.1894,2.1836,2.1821,2.1822,2.1771,2.1764,2.1727,2.171,2.1703,2.1644,2.1617,2.1565,2.1524,2.1496,2.1491,2.1473,2.1504,2.1496,2.1512,2.151,2.1582,2.1586,2.1505,2.1506,2.1507,0,2.1994,2.1994,2.1936,2.1924,2.1899,2.1881,2.1863,2.1808,2.1791,2.1743,2.1741,2.171,2.1682,2.1641,2.1593,2.156,2.1539,2.1566,2.1533,2.1546,2.1533,2.1532,2.153,2.1573,2.1574,2.1575,2.1576,0,2.2072,2.2048,2.2026,2.1994,2.1974,2.1946,2.1915,2.1908,2.1845,2.1828,2.18,2.1779,2.1736,2.1704,2.1664,2.1634,2.1592,2.1587,2.1587,2.16,2.1615,2.1602,2.1519,2.1584,2.1584,2.1583,2.1582,2.1582,2.2135,2.213,2.2087,2.2063,2.2034,2.2006,2.1995,2.1956,2.1933,2.1894,2.1863,2.1836,2.1792,2.1734,2.1706,2.1683,2.1663,2.1666,2.1666,2.1666,2.167,2.1623,2.1676,2.1675,2.1675,2.1675,2.1675,0,2.2205,2.2175,2.2154,2.2112,2.2091,2.2057,2.2021,2.2005,2.1983,2.1947,2.192,2.1886,2.1855,2.1804,2.1767,2.1758,2.1738,2.175,2.1748,2.1741,2.1692,2.1692,2.1767,2.1767,2.1766,2.1766,2.1766,2.1766,2.2239,2.2228,2.2199,2.2172,2.2141,2.2115,2.2097,2.2069,2.2039,2.2004,2.1978,2.1946,2.1902,2.1862,2.183,2.1816,2.1803,2.182,2.1799,2.1754,2.1745,2.1737,2.1737,2.1819,2.1819,2.185,2.185,2.185]}]]